Regional Weather Roundup
Issued by NWS Green Bay, WI

Home | Current Version | Previous Version | Graphics & Text | Print | Product List | Glossary Off
Versions: 1 2 3 4 5 6 7 8 9 10 11 12 13 14 15 16 17 18 19 20 21 22 23 24 25 26 27 28 29 30 31 32 33 34 35 36 37 38 39 40 41 42 43 44 45 46 47 48 49 50

000
ASUS43 KGRB 202211
RWRGRB

NORTH-CENTRAL AND NORTHEAST WISCONSIN REGIONAL WEATHER ROUNDUP
NATIONAL WEATHER SERVICE GREEN BAY WI
500 PM CDT THU JUL 20 2017

WIZ005-009-010>012-018-019-202300-
NORTH CENTRAL WISCONSIN

CITY           SKY/WX    TMP DP  RH WIND       PRES   REMARKS
IRONWOOD       SUNNY     81  61  50 W9        29.99F
MANITOWISH WTR SUNNY     82  57  42 NW8       29.99F
ARBOR VITAE    SUNNY     83  54  35 NW6G16    29.99S
EAGLE RIVER    SUNNY     83  50  31 NW10      29.98F
LAND O LAKES   SUNNY     83  51  32 NW8       30.00F
RHINELANDER    SUNNY     86  62  44 NW7       29.99F
PHILLIPS       SUNNY     83  62  50 W6        29.99F
ANTIGO         SUNNY     83  62  49 NW8       29.99S
TOMAHAWK         N/A     83  58  43 NW5G16    30.00S
MERRILL        SUNNY     84  63  47 NW7       29.99F
$$

WIZ013-073-202300-
NORTHEAST WISCONSIN

CITY           SKY/WX    TMP DP  RH WIND       PRES   REMARKS
IRON MOUNTAIN  SUNNY     87  58  37 NW8       29.92F
MARINETTE      SUNNY     86  66  51 VRB5      29.92F
OCONTO         SUNNY     86  64  47 NW6       29.92S
$$

WIZ017-030-035>037-045-202300-
CENTRAL WISCONSIN

CITY           SKY/WX    TMP DP  RH WIND       PRES   REMARKS
MEDFORD        SUNNY     82  62  51 W7        30.00F
WAUSAU         SUNNY     85  62  46 W13       29.96F
MOSINEE        MOSUNNY   84  64  51 W13       30.00S
MARSHFIELD     SUNNY     84  63  49 W10       29.99F
WISC RAPIDS    MOSUNNY   87  64  46 NW13      29.99S
STEVENS POINT  SUNNY     84  63  50 NW8       29.98F
WAUPACA        MOSUNNY   88  62  41 W9        29.96S
SHAWANO        SUNNY     89  58  35 NW12      29.94S
CLINTONVILLE   SUNNY     86  59  39 NW10      29.95R
WAUTOMA        PTSUNNY   84  70  62 NW8       29.97
$$

WIZ038-039-048-051-202300-
FOX VALLEY

CITY           SKY/WX    TMP DP  RH WIND       PRES   REMARKS
NWS GREEN BAY  SUNNY     87  70  56 NW12      29.93F HX  92
APPLETON       MOSUNNY   84  61  45 NW12      29.94F
OSHKOSH        CLOUDY    82  67  60 NW9       29.95S
FOND DU LAC    MOSUNNY   86  67  52 NW10      29.95F
$$

WIZ022-050-052-202300-
EAST CENTRAL WISCONSIN

CITY           SKY/WX    TMP DP  RH WIND       PRES   REMARKS
EPHRAIM        FAIR      82  66  56 W5        29.91F
WASHINGTON ISL FAIR      81  67  61 SW7       29.90S
STURGEON BAY     N/A     83  67  58 N5        29.93F
MANITOWOC      MOSUNNY   85  67  54 W7        29.94F
SHEBOYGAN      MOSUNNY   85  72  65 NW10      29.94F HX  91
$$

LMZ563-521-522-541>543-202300-
LAKESHORE

STATION/POSITION TIME  TEMP    WIND        PRES    VSBY  WAVE
                       AIR SEA DIR/SP/G                  HT/PER
                 (UTC) (F)     (DEG/KT/KT) (MB)    (MI)  (FT/S)
SHEBOYGAN LKSHOR 2200   70     160/ 16/ 17 1013.3S
KEWAUNEE LKSHORE 2142   71     170/  7/  7 1013.2F
NORTHPORT PIER   2140   86     280/  2/  5 1012.5F
N MID LAKE BUOY  2150   69 66  190/ 10/ 10 1013.2F         2/ 6
S GREEN BAY BUOY 2200   81 74   10/  2/  4 1013.2
SISTER BAY LKSHO 2202   85     250/  6/  7   N/A
CHAMBERS ISLAND  2140   86     220/  1/  5 1012.5S
MENOMINEE LKSHOR 2142   85     300/  5/  9 1012.7F
$$




USA.gov is the U.S. government's official web portal to all federal, state and local government web resources and services.